Regional Weather Roundup
Issued by NWS

Home | Current Version | Previous Version | Text Only | Print | Product List | Glossary On
Versions: 1 2 3 4 5 6 7 8 9 10 11 12 13 14 15 16 17 18 19 20 21 22 23 24 25 26 27 28 29 30 31 32 33 34 35 36 37 38 39 40 41 42 43 44 45 46 47 48 49 50
000
ASUS44 KMEG 242010
RWRTN
TENNESSEE HOURLY STATE WEATHER ROUNDUP
NATIONAL WEATHER SERVICE MEMPHIS TN
300 PM CDT SAT JUN 24 2017

TNZ002-004-019-021-049-052-054-088>092-242100-
WEST TENNESSEE

CITY           SKY/WX    TMP DP  RH WIND       PRES   REMARKS
MEMPHIS INTL   CLOUDY    82  63  52 N12       30.10F
NWS MEMPHIS      N/A     80 N/A N/A MISG        N/A
JACKSON        PTSUNNY   81  61  50 N10       30.10S
SOMERVILLE     SUNNY     79  63  57 NW8       30.09F
COVINGTON      SUNNY     79  63  57 N9        30.11F
UNION CITY     MOSUNNY   79  61  53 NW8G16    30.09S
BOLIVAR        SUNNY     79  63  57 NW8       30.09S
PARIS          SUNNY     79  61  53 VRB7      30.09S
HUNTINGDON     MOSUNNY   79  64  61 W6        30.08F
LEXINGTON      SUNNY     79  61  53 NW8G14    30.08S
SELMER         MOSUNNY   81  63  54 N9        30.08S
SAVANNAH       MOSUNNY   82  64  54 NE9       30.06S
$$

TNZ008-025-027-028-033-062-065-066-242100-
NORTH MIDDLE TENNESSEE

CITY           SKY/WX    TMP DP  RH WIND       PRES   REMARKS
NASHVILLE      CLOUDY    84  59  42 NW12      30.06S
PORTLAND       SUNNY     79  59  50 NW7G14    30.06S
CLARKSVILLE    MOSUNNY   80  58  46 NW13G18   30.08S
SMYRNA         MOSUNNY   83  62  49 N13       30.06S
COOKEVILLE     MOSUNNY   81  64  57 NW8       30.04F
GALLATIN       SUNNY     81  57  44 NW8G16    30.08S
CROSSVILLE     MOSUNNY   79  60  52 N10       30.08S
$$

TNZ061-075-076-078-094-096-097-242100-
SOUTH MIDDLE TENNESSEE

CITY           SKY/WX    TMP DP  RH WIND       PRES   REMARKS
FAYETTEVILLE   SUNNY     82  64  54 N10       30.04F
TULLAHOMA      SUNNY     81  61  50 N9        30.06S
WINCHESTER     SUNNY     82  63  51 N8          N/A
MCMINNVILLE    MOSUNNY   81  64  57 NW8       30.05S
COLUMBIA       MOSUNNY   82  63  51 NW8       30.04S
SHELBYVILLE    PTSUNNY   82  64  54 N10G17    30.04S
$$

TNZ017-018-042-046-047-242100-
NORTHEAST TENNESSEE

CITY           SKY/WX    TMP DP  RH WIND       PRES   REMARKS
TRI CITIES     MOSUNNY   83  65  54 W9        30.00F
ELIZABETHTON   MOSUNNY   82  68  61 W12       30.01S
$$

TNZ012-013-036-069-073-074-242100-
CENTRAL EAST TENNESSEE

CITY           SKY/WX    TMP DP  RH WIND       PRES   REMARKS
KNOXVILLE      PTSUNNY   85  65  51 W13G21    29.98F
OAK RIDGE      SUNNY     89  57  33 VRB3      30.00F
DOWNTOWN KNOXV MOSUNNY   86  70  58 VRB3G12   29.97F HX  90
GATLINBURG     PTSUNNY   84  66  54 SW7       29.97F
MORRISTOWN     MOSUNNY   82  68  61 N12       29.98F
JACKSBORO      SUNNY     82  61  47 VRB7G13   30.05S
$$

TNZ083-085-099-242100-
SOUTHEAST TENNESSEE

CITY           SKY/WX    TMP DP  RH WIND       PRES   REMARKS
CHATTANOOGA    PTSUNNY   88  69  53 W8        29.99F HX  92
$$

SKY/WX REPORTED AS FAIR MEANS FEW OR NO CLOUDS BELOW
12 THOUSAND FEET.




USA.gov is the U.S. government's official web portal to all federal, state and local government web resources and services.